This demonstration page uses our WeatherBlox Daily Observations layout. Learn more.

Left ArrowRight Arrow

Hourly Observations for August 26, 2018

Temp ( °F °C ) Dew Point ( °F °C ) Humidity (%) Winds ( mph kmh ) Pressure ( in mb ) Visibility ( mi km ) Precip ( " mm )
12:15 am 00:15 Clear 68 20 63 17 83 83 SSW 3 6 30.24 1024 10 16.0934 0 0
12:35 am 00:35 Clear 64 18 64 18 100 100 SW 3 6 30.24 1024 10 16.0934 0 0
12:55 am 00:55 Clear 64 18 63 17 94 94 Calm 30.24 1024 10 16.0934 0 0
1:15 am 01:15 Clear 66 19 63 17 88 88 SSW 5 7 30.24 1024 10 16.0934 0 0
1:30 am 01:30 Clear 68 20 63 17 83 83 Calm 30.21 1023 10 16.0934 0 0
1:55 am 01:55 Clear 68 20 63 17 83 83 Calm 30.21 1023 10 16.0934 0 0
2:15 am 02:15 Clear 68 20 63 17 83 83 Calm 30.21 1023 10 16.0934 0 0
2:35 am 02:35 Clear 68 20 63 17 83 83 Calm 30.21 1023 10 16.0934 0 0
2:55 am 02:55 Clear 64 18 63 17 94 94 S 5 7 30.21 1023 10 16.0934 0 0
3:15 am 03:15 Clear 64 18 63 17 94 94 S 5 7 30.21 1023 10 16.0934 0 0
3:35 am 03:35 Partly Cloudy 64 18 63 17 94 94 S 3 6 30.21 1023 10 16.0934 0 0
3:55 am 03:55 Partly Cloudy 63 17 63 17 100 100 SW 3 6 30.21 1023 10 16.0934 0 0
4:15 am 04:15 Clear 63 17 63 17 100 100 Calm 30.21 1023 10 16.0934 0 0
4:35 am 04:35 Clear 63 17 63 17 100 100 Calm 30.21 1023 10 16.0934 0 0
4:55 am 04:55 Clear 63 17 61 16 94 94 Calm 30.21 1023 10 16.0934 0 0
5:15 am 05:15 Clear 61 16 61 16 100 100 Calm 30.18 1022 10 16.0934 0 0
5:35 am 05:35 Clear 61 16 61 16 100 100 Calm 30.18 1022 10 16.0934 0 0
5:55 am 05:55 Partly Cloudy 61 16 61 16 100 100 Calm 30.18 1022 10 16.0934 0 0
6:15 am 06:15 Clear 61 16 61 16 100 100 SSE 3 6 30.18 1022 10 16.0934 0 0
6:35 am 06:35 Sunny 61 16 61 16 100 100 SSE 3 6 30.21 1023 10 16.0934 0 0
6:55 am 06:55 Sunny 61 16 61 16 100 100 Calm 30.21 1023 10 16.0934 0 0
7:15 am 07:15 Sunny 61 16 61 16 100 100 Calm 30.21 1023 10 16.0934 0 0
7:35 am 07:35 Sunny 63 17 63 17 100 100 Calm 30.21 1023 10 16.0934 0 0
7:55 am 07:55 Sunny 64 18 63 17 94 94 Calm 30.21 1023 10 16.0934 0 0
8:15 am 08:15 Sunny 64 18 63 17 94 94 S 3 6 30.21 1023 10 16.0934 0 0
8:35 am 08:35 Sunny 66 19 64 18 94 94 Calm 30.21 1023 10 16.0934 0 0
8:55 am 08:55 Sunny 68 20 64 18 88 88 Calm 30.21 1023 10 16.0934 0 0
9:15 am 09:15 Sunny 70 21 64 18 83 83 Calm 30.21 1023 10 16.0934 0 0
9:35 am 09:35 Sunny 72 22 64 18 78 78 Calm 30.21 1023 10 16.0934 0 0
9:55 am 09:55 Sunny 73 23 66 19 78 78 S 3 6 30.21 1023 10 16.0934 0 0
10:15 am 10:15 Sunny 75 24 66 19 74 74 SSW 6 9 30.21 1023 10 16.0934 0 0
10:35 am 10:35 Sunny 77 25 68 20 74 74 S 7 11 30.18 1022 10 16.0934 0 0
10:55 am 10:55 Sunny 77 25 68 20 74 74 S 6 9 30.18 1022 10 16.0934 0 0
11:15 am 11:15 Sunny 81 27 68 20 66 66 SSW 5 7 30.18 1022 10 16.0934 0 0
11:35 am 11:35 Sunny 79 26 70 21 74 74 S 3 6 30.18 1022 10 16.0934 0 0
11:55 am 11:55 Sunny 81 27 70 21 70 70 SSE 7 11 30.18 1022 10 16.0934 0 0
12:15 pm 12:15 Sunny 82 28 70 21 66 66 S 6 9 30.15 1021 10 16.0934 0 0
12:35 pm 12:35 Partly Cloudy 86 30 70 21 59 59 SW 7 11 30.15 1021 10 16.0934 0 0
12:55 pm 12:55 Partly Cloudy 86 30 70 21 59 59 S 7 11 30.15 1021 10 16.0934 0 0
1:15 pm 13:15 Mostly Cloudy 86 30 70 21 59 59 SSW 7 11 30.15 1021 10 16.0934 0 0
1:35 pm 13:35 Partly Cloudy 86 30 70 21 59 59 SW 7 11 30.15 1021 10 16.0934 0 0
1:55 pm 13:55 Sunny 88 31 72 22 59 59 S 8 13 30.15 1021 10 16.0934 0 0
2:15 pm 14:15 Sunny 88 31 72 22 59 59 SSW 9 15 30.15 1021 10 16.0934 0 0
2:35 pm 14:35 Sunny 88 31 70 21 55 55 WSW 7 11 30.12 1020 10 16.0934 0 0
2:55 pm 14:55 Sunny 88 31 72 22 59 59 WSW 5 7 30.12 1020 10 16.0934 0 0
3:15 pm 15:15 Sunny 88 31 72 22 59 59 WSW 6 9 30.12 1020 10 16.0934 0 0
3:35 pm 15:35 Sunny 90 32 72 22 55 55 SSW 8 13 30.09 1019 10 16.0934 0 0
3:55 pm 15:55 Sunny 90 32 70 21 52 52 SSW 8 13 30.09 1019 10 16.0934 0 0
4:15 pm 16:15 Sunny 90 32 72 22 55 55 S 9 15 30.06 1018 10 16.0934 0 0
4:35 pm 16:35 Sunny 88 31 72 22 59 59 S 9 15 30.09 1019 10 16.0934 0 0
4:55 pm 16:55 Sunny 88 31 72 22 59 59 SW 8 13 30.09 1019 10 16.0934 0 0
5:15 pm 17:15 Sunny 88 31 72 22 59 59 SW 8 13 30.12 1020 10 16.0934 0 0
5:35 pm 17:35 Sunny 88 31 73 23 62 62 SSW 6 9 30.09 1019 10 16.0934 0 0
5:55 pm 17:55 Sunny 88 31 73 23 62 62 SSW 5 7 30.09 1019 10 16.0934 0 0
6:15 pm 18:15 Sunny 88 31 73 23 62 62 SW 6 9 30.09 1019 10 16.0934 0 0
6:35 pm 18:35 Sunny 86 30 73 23 66 66 SW 5 7 30.09 1019 10 16.0934 0 0
6:55 pm 18:55 Partly Cloudy 86 30 73 23 66 66 SW 3 6 30.09 1019 10 16.0934 0 0
7:15 pm 19:15 Partly Cloudy 86 30 73 23 66 66 SW 3 6 30.09 1019 10 16.0934 0 0
7:35 pm 19:35 Partly Cloudy 82 28 73 23 74 74 SW 3 6 30.09 1019 10 16.0934 0 0
7:55 pm 19:55 Partly Cloudy 82 28 73 23 74 74 SSW 5 7 30.09 1019 10 16.0934 0 0
8:15 pm 20:15 Clear 81 27 73 23 79 79 SSW 5 7 30.09 1019 10 16.0934 0 0
8:35 pm 20:35 Partly Cloudy 81 27 73 23 79 79 Calm 30.12 1020 10 16.0934 0 0
8:55 pm 20:55 Clear 79 26 73 23 84 84 SW 6 9 30.12 1020 10 16.0934 0 0
9:15 pm 21:15 Partly Cloudy 79 26 73 23 84 84 S 6 9 30.12 1020 10 16.0934 0 0
9:35 pm 21:35 Partly Cloudy 79 26 73 23 84 84 S 6 9 30.12 1020 10 16.0934 0 0
9:55 pm 21:55 Clear 79 26 73 23 84 84 WSW 6 9 30.12 1020 10 16.0934 0 0
10:15 pm 22:15 Clear 79 26 73 23 84 84 SW 5 7 30.12 1020 10 16.0934 0 0
10:35 pm 22:35 Clear 77 25 73 23 89 89 WSW 5 7 30.12 1020 10 16.0934 0 0
10:55 pm 22:55 Clear 77 25 73 23 89 89 WSW 3 6 30.12 1020 10 16.0934 0 0
11:15 pm 23:15 Clear 73 23 73 23 100 100 WNW 3 6 30.12 1020 10 16.0934 0 0
11:35 pm 23:35 Clear 73 23 73 23 100 100 Calm 30.12 1020 10 16.0934 0 0
11:55 pm 23:55 Clear 73 23 72 22 94 94 W 3 6 30.12 1020 10 16.0934 0 0

Powered by AerisWeather